User: anonymous   Login
Location: Bartlow
(52.0833°N, 0.3167°E)
Time: 04:35:23
(UTC+00:00)
Language:

SL-08 R/B - Orbit

View from above orbital plane
View from above orbital plane
View from above satellite
View from above satellite

Ground track
Ground track

The orbit data is extracted from the following two-line orbital elements,

1 27561U 02054C   24060.52116621  .00000782  00000-0  18265-3 0  9990
2 27561  98.5282 251.9058 0044971 193.8228 166.1741 14.57027517128472
Epoch (UTC): 29 February 2024 12:30:28
Eccentricity: 0.0044971
inclination: 98.5282°
perigee height: 671 km
apogee height: 734 km
right ascension of ascending node: 251.9058°
argument of perigee: 193.8228°
revolutions per day: 14.57027517
mean anomaly at epoch: 166.1741°
orbit number at epoch: 12847

The dashed part of the orbit path shows where the satellite is in the earth's shadow,  

DLR